Location: Calvin Observatory
(42.9309°N, 85.5886°W)
Time: 21:44:04
(UTC-04:00)

ISS - Visible Passes

Search period start: 27 September 2016 00:00
Search period end: 07 October 2016 00:00
Orbit: 400 x 410 km, 51.6° (Epoch: 28 September)

Date Brightness Start Highest point End Pass type
(mag) Time Alt. Az. Time Alt. Az. Time Alt. Az.
27 Sep -0.7 21:32:47 10° SW 21:33:16 13° SW 21:33:16 13° SW visible
28 Sep -2.3 20:41:10 10° SSW 20:44:00 28° SE 20:44:06 28° SE visible
29 Sep -1.4 19:50:07 10° S 19:52:07 15° SE 19:54:08 10° E visible
29 Sep -2.3 21:25:01 10° WSW 21:27:26 44° W 21:27:26 44° W visible
30 Sep -3.4 20:32:58 10° SW 20:36:11 67° SE 20:37:52 26° ENE visible
30 Sep 0.1 22:10:07 10° WNW 22:10:33 13° WNW 22:10:33 13° WNW visible
01 Oct -2.0 21:17:37 10° W 21:20:39 35° NNW 21:20:48 35° NNW visible
02 Oct -2.7 20:25:15 10° WSW 20:28:27 55° NNW 20:30:57 15° NE visible
02 Oct 0.0 22:03:00 10° WNW 22:03:37 13° NW 22:03:37 13° NW visible
03 Oct -1.4 21:10:25 10° WNW 21:13:06 23° NNW 21:13:38 22° N visible
04 Oct -1.8 20:17:51 10° W 20:20:48 31° NNW 20:23:35 11° NE visible
04 Oct -0.1 21:55:43 10° NW 21:56:15 12° NW 21:56:15 12° NW visible
05 Oct -1.1 21:03:12 10° NW 21:05:36 19° N 21:06:07 18° N visible
06 Oct -1.3 20:10:36 10° WNW 20:13:12 22° NNW 20:15:49 10° NE visible
06 Oct -0.1 21:48:08 10° NW 21:48:37 12° NNW 21:48:37 12° NNW visible
